Flag for U.S.A. Weather past 2 weeks in Antioch, California, U.S.A.

Now
65 °F

Overcast.


Feels Like: 65 °F
Forecast: 63 / 85 °F
Wind: 13 mph from Southwest

Location: Buchanan Field

Current Time: Aug 2, 2015 at 8:32:52 AM

Latest Report: Aug 2, 2015 at 7:53 AM


Visibility: 10 mi

Pressure: 29.93 "Hg

Humidity: 73%

Dew point: 56 °F

Location of AntiochLocation

Historic Weather in Antioch — Graph

°F

Antioch temperature yesterday

Maximum temperature yesterday: 86 °F (at 3:53 PM)
Minimum temperature yesterday: 62 °F (at 4:53 AM)
Average temperature yesterday: 72 °F

Past Weeks' High & Low Weather Summary

 TemperatureHumidityPressure
High102 °F (Jul 28, 4:53 PM)81% (Jul 26, 4:53 AM)30.06 "Hg (Jul 26, 4:53 AM)
Low60 °F (Jul 24, 5:53 AM)12% (Jul 28, 1:53 PM)29.74 "Hg (Jul 28, 5:53 PM)
Average74 °F53%29.89 "Hg
* Reported Jul 18 6:53 AM — Aug 2 6:53 AM, Antioch, Weather by CustomWeather, © 2015

Note: Actual official high and low records may vary slightly from our data, if they occured in-between our weather recording intervals... More about our weather records

Advertising

Antioch weather history for previous 24 hours

 ConditionsComfort  
Time TempWeatherWind HumidityBarometerVisibility
6:53 AM
Sun, Aug 2
64 °FOvercast.13 mph75%29.90 "Hg10 mi
5:53 AM63 °FOvercast.5 mph78%29.89 "Hg10 mi
4:53 AM63 °FPassing clouds.5 mph78%29.89 "Hg10 mi
3:53 AM63 °FClear.6 mph78%29.90 "Hg10 mi
2:53 AM64 °FClear.No wind75%29.89 "Hg10 mi
1:53 AM64 °FClear.5 mph75%29.88 "Hg10 mi
12:53 AM65 °FClear.3 mph76%29.89 "Hg10 mi
11:53 PM
Sat, Aug 1
66 °FClear.9 mph73%29.90 "Hg10 mi
10:53 PM66 °FClear.9 mph73%29.91 "Hg10 mi
9:53 PM68 °FClear.13 mph70%29.91 "Hg10 mi
8:53 PM70 °FSunny.14 mph64%29.89 "Hg10 mi
7:53 PM74 °FSunny.13 mph52%29.85 "Hg10 mi
6:53 PM79 °FSunny.14 mph41%29.85 "Hg10 mi
5:53 PM84 °FSunny.10 mph33%29.84 "Hg10 mi
4:53 PM85 °FSunny.12 mph36%29.85 "Hg10 mi
3:53 PM86 °FSunny.14 mph36%29.85 "Hg10 mi
2:53 PM84 °FSunny.8 mph37%29.88 "Hg10 mi
1:53 PM83 °FSunny.8 mph37%29.90 "Hg10 mi
12:53 PM79 °FSunny.8 mph44%29.92 "Hg10 mi
11:53 AM77 °FSunny.10 mph45%29.95 "Hg10 mi
10:53 AM73 °FSunny.16 mph51%29.95 "Hg10 mi
9:53 AM70 °FSunny.17 mph59%29.96 "Hg10 mi
8:53 AM69 °FScattered clouds.14 mph63%29.97 "Hg10 mi
Weather by CustomWeather, © 2015

See weather overviewHow to use our weather pages